| time (UTC) | temp F | wind direction | speed MPH | gust MPH | rain 1hr in | rain 24hr in | rain mn in | humidity % | barometer mb |
| 20260507151803 | 53 | 60 | 1.0 | 5.0 | 0.00 | 0.00 | 0.00 | 38 | 1014.8 |
| 20260507151303 | 53 | 272 | 1.0 | 6.0 | 0.00 | 0.00 | 0.00 | 38 | 1014.8 |
| 20260507150803 | 53 | 130 | 2.0 | 5.0 | 0.00 | 0.00 | 0.00 | 35 | 1014.8 |
| 20260507150303 | 53 | 325 | 1.0 | 6.0 | 0.00 | 0.00 | 0.00 | 35 | 1014.8 |
| 20260507145803 | 53 | 119 | 1.0 | 7.0 | 0.00 | 0.00 | 0.00 | 35 | 1014.8 |
| 20260507145306 | 53 | 157 | 2.0 | 8.0 | 0.00 | 0.00 | 0.00 | 35 | 1014.8 |
| 20260507144803 | 53 | 197 | 2.0 | 6.0 | 0.00 | 0.00 | 0.00 | 35 | 1014.8 |
| 20260507144303 | 52 | 193 | 3.0 | 10.0 | 0.00 | 0.00 | 0.00 | 34 | 1014.8 |
| 20260507143303 | 53 | 187 | 2.0 | 5.0 | 0.00 | 0.00 | 0.00 | 36 | 1014.8 |
| 20260507142803 | 53 | 199 | 3.0 | 7.0 | 0.00 | 0.00 | 0.00 | 32 | 1014.8 |
| 20260507142306 | 53 | 168 | 2.0 | 6.0 | 0.00 | 0.00 | 0.00 | 32 | 1014.8 |
| 20260507141803 | 53 | 192 | 2.0 | 5.0 | 0.00 | 0.00 | 0.00 | 32 | 1014.8 |
| 20260507141303 | 53 | 287 | 2.0 | 5.0 | 0.00 | 0.00 | 0.00 | 32 | 1014.8 |
| 20260507140803 | 53 | 121 | 2.0 | 5.0 | 0.00 | 0.00 | 0.00 | 33 | 1014.8 |
| 20260507140303 | 54 | 69 | 2.0 | 5.0 | 0.00 | 0.00 | 0.00 | 34 | 1014.8 |
| 20260507135804 | 54 | 198 | 2.0 | 5.0 | 0.00 | 0.00 | 0.00 | 36 | 1014.8 |
| 20260507135306 | 53 | 55 | 3.0 | 6.0 | 0.00 | 0.00 | 0.00 | 34 | 1014.8 |
| 20260507134802 | 54 | 72 | 2.0 | 6.0 | 0.00 | 0.00 | 0.00 | 35 | 1014.8 |
| 20260507134303 | 54 | 137 | 2.0 | 6.0 | 0.00 | 0.00 | 0.00 | 36 | 1014.8 |
| 20260507133803 | 54 | 150 | 2.0 | 6.0 | 0.00 | 0.00 | 0.00 | 34 | 1014.8 |
| 20260507133303 | 54 | 125 | 2.0 | 6.0 | 0.00 | 0.00 | 0.00 | 34 | 1014.8 |
| 20260507132803 | 54 | 121 | 2.0 | 5.0 | 0.00 | 0.00 | 0.00 | 34 | 1014.8 |
| 20260507132307 | 54 | 202 | 3.0 | 8.0 | 0.00 | 0.00 | 0.00 | 32 | 1014.8 |
| 20260507131803 | 55 | 68 | 2.0 | 7.0 | 0.00 | 0.00 | 0.00 | 33 | 1014.8 |
| 20260507131303 | 54 | 3 | 3.0 | 8.0 | 0.00 | 0.00 | 0.00 | 34 | 1014.8 |
| 20260507130303 | 54 | 25 | 4.0 | 8.0 | 0.00 | 0.00 | 0.00 | 34 | 1014.8 |
| 20260507125803 | 54 | 51 | 2.0 | 7.0 | 0.00 | 0.00 | 0.00 | 32 | 1014.8 |
| 20260507125306 | 54 | 45 | 3.0 | 7.0 | 0.00 | 0.00 | 0.00 | 30 | 1014.8 |
| 20260507124803 | 55 | 354 | 2.0 | 3.0 | 0.00 | 0.00 | 0.00 | 30 | 1014.6 |
| 20260507124303 | 54 | 80 | 2.0 | 7.0 | 0.00 | 0.00 | 0.00 | 30 | 1014.6 |
| 20260507123803 | 54 | 24 | 2.0 | 6.0 | 0.00 | 0.00 | 0.00 | 28 | 1014.6 |
| 20260507123303 | 54 | 81 | 3.0 | 7.0 | 0.00 | 0.00 | 0.00 | 27 | 1014.6 |
| 20260507122803 | 55 | 55 | 2.0 | 9.0 | 0.00 | 0.00 | 0.00 | 28 | 1014.6 |
| 20260507122306 | 54 | 13 | 3.0 | 9.0 | 0.00 | 0.00 | 0.00 | 27 | 1014.6 |
| 20260507121803 | 54 | 85 | 2.0 | 3.0 | 0.00 | 0.00 | 0.00 | 27 | 1014.6 |
| 20260507121303 | 54 | 50 | 3.0 | 6.0 | 0.00 | 0.00 | 0.00 | 28 | 1014.6 |
| 20260507120803 | 53 | 358 | 4.0 | 10.0 | 0.00 | 0.00 | 0.00 | 27 | 1014.6 |
| 20260507120303 | 54 | 2 | 3.0 | 8.0 | 0.00 | 0.00 | 0.00 | 28 | 1014.6 |
| 20260507115803 | 54 | 29 | 3.0 | 8.0 | 0.00 | 0.00 | 0.00 | 25 | 1014.6 |
| 20260507115306 | 54 | 11 | 2.0 | 8.0 | 0.00 | 0.00 | 0.00 | 27 | 1014.6 |
| 20260507114803 | 54 | 350 | 3.0 | 6.0 | 0.00 | 0.00 | 0.00 | 27 | 1014.4 |
| 20260507114303 | 54 | 358 | 3.0 | 6.0 | 0.00 | 0.00 | 0.00 | 27 | 1014.4 |
| 20260507113803 | 54 | 342 | 4.0 | 10.0 | 0.00 | 0.00 | 0.00 | 27 | 1014.4 |
| 20260507112803 | 54 | 321 | 2.0 | 5.0 | 0.00 | 0.00 | 0.00 | 27 | 1014.4 |
| 20260507112306 | 54 | 15 | 2.0 | 5.0 | 0.00 | 0.00 | 0.00 | 30 | 1014.4 |
| 20260507111803 | 54 | 357 | 3.0 | 6.0 | 0.00 | 0.00 | 0.00 | 29 | 1014.4 |
| 20260507111303 | 54 | 20 | 2.0 | 6.0 | 0.00 | 0.00 | 0.00 | 29 | 1014.4 |
| 20260507110803 | 54 | 66 | 3.0 | 10.0 | 0.00 | 0.00 | 0.00 | 28 | 1014.4 |
| 20260507110303 | 54 | 5 | 2.0 | 3.0 | 0.00 | 0.00 | 0.00 | 27 | 1014.4 |
| 20260507105306 | 55 | 338 | 1.0 | 8.0 | 0.00 | 0.00 | 0.00 | 28 | 1014.0 |
| 20260507104303 | 53 | 39 | 4.0 | 9.0 | 0.00 | 0.00 | 0.00 | 25 | 1014.0 |
| 20260507103803 | 53 | 347 | 4.0 | 10.0 | 0.00 | 0.00 | 0.00 | 25 | 1014.0 |
| 20260507103303 | 54 | 293 | 2.0 | 6.0 | 0.00 | 0.00 | 0.00 | 26 | 1014.0 |
| 20260507102803 | 54 | 327 | 1.0 | 10.0 | 0.00 | 0.00 | 0.00 | 29 | 1014.0 |
| 20260507102306 | 53 | 26 | 1.0 | 5.0 | 0.00 | 0.00 | 0.00 | 29 | 1014.0 |
| 20260507101803 | 53 | 52 | 1.0 | 5.0 | 0.00 | 0.00 | 0.00 | 27 | 1014.0 |
| 20260507100803 | 53 | 15 | 3.0 | 6.0 | 0.00 | 0.00 | 0.00 | 33 | 1014.0 |
| 20260507100303 | 53 | 79 | 2.0 | 5.0 | 0.00 | 0.00 | 0.00 | 30 | 1014.0 |
| 20260507095803 | 53 | 14 | 3.0 | 5.0 | 0.00 | 0.00 | 0.00 | 30 | 1014.0 |
| 20260507095305 | 53 | 155 | 2.0 | 5.0 | 0.00 | 0.00 | 0.00 | 31 | 1014.0 |
| 20260507094804 | 53 | 9 | 5.0 | 12.0 | 0.00 | 0.00 | 0.00 | 33 | 1014.0 |
| 20260507094303 | 54 | 69 | 2.0 | 8.0 | 0.00 | 0.00 | 0.00 | 34 | 1014.0 |
| 20260507093804 | 53 | 85 | 1.0 | 3.0 | 0.00 | 0.00 | 0.00 | 34 | 1014.0 |
| 20260507093304 | 53 | 188 | 4.0 | 9.0 | 0.00 | 0.00 | 0.00 | 33 | 1014.0 |
| 20260507092803 | 53 | 47 | 3.0 | 9.0 | 0.00 | 0.00 | 0.00 | 34 | 1014.0 |
| 20260507092306 | 53 | 176 | 2.0 | 8.0 | 0.00 | 0.00 | 0.00 | 35 | 1013.8 |
| 20260507091803 | 53 | 15 | 4.0 | 8.0 | 0.00 | 0.00 | 0.00 | 35 | 1013.8 |
| 20260507090303 | 52 | 339 | 2.0 | 6.0 | 0.00 | 0.00 | 0.00 | 37 | 1013.8 |
| 20260507085306 | 51 | 39 | 2.0 | 5.0 | 0.00 | 0.00 | 0.00 | 38 | 1013.8 |
| 20260507084303 | 52 | 34 | 2.0 | 3.0 | 0.00 | 0.00 | 0.00 | 38 | 1013.8 |
| 20260507083803 | 51 | 15 | 1.0 | 8.0 | 0.00 | 0.00 | 0.00 | 38 | 1013.8 |
| 20260507083303 | 50 | 352 | 2.0 | 3.0 | 0.00 | 0.00 | 0.00 | 39 | 1013.8 |
| 20260507082803 | 50 | 108 | 2.0 | 5.0 | 0.00 | 0.00 | 0.00 | 40 | 1013.6 |
| 20260507082306 | 50 | 355 | 2.0 | 3.0 | 0.00 | 0.00 | 0.00 | 41 | 1013.6 |
| 20260507081803 | 50 | 9 | 2.0 | 6.0 | 0.00 | 0.00 | 0.00 | 40 | 1013.6 |
| 20260507081303 | 50 | 216 | 1.0 | 3.0 | 0.00 | 0.00 | 0.00 | 33 | 1013.6 |
| 20260507080303 | 50 | 182 | 3.0 | 7.0 | 0.00 | 0.00 | 0.00 | 34 | 1013.6 |
| 20260507075803 | 50 | 293 | 1.0 | 9.0 | 0.00 | 0.00 | 0.00 | 39 | 1013.6 |
| 20260507075306 | 49 | 176 | 0.0 | 9.0 | 0.00 | 0.00 | 0.00 | 39 | 1013.6 |
| 20260507074803 | 49 | 359 | 1.0 | 5.0 | 0.00 | 0.00 | 0.00 | 39 | 1013.6 |
| 20260507074303 | 49 | 59 | 2.0 | 5.0 | 0.00 | 0.00 | 0.00 | 39 | 1013.6 |
| 20260507073803 | 49 | 33 | 1.0 | 5.0 | 0.00 | 0.00 | 0.00 | 44 | 1013.6 |
| 20260507072803 | 48 | 21 | 1.0 | 3.0 | 0.00 | 0.00 | 0.00 | 48 | 1013.6 |
| 20260507072306 | 48 | 334 | 1.0 | 3.0 | 0.00 | 0.00 | 0.00 | 47 | 1013.6 |
| 20260507071803 | 48 | 62 | 2.0 | 3.0 | 0.00 | 0.00 | 0.00 | 50 | 1013.6 |
| 20260507071303 | 47 | 292 | 2.0 | 3.0 | 0.00 | 0.00 | 0.00 | 51 | 1013.6 |
| 20260507070803 | 47 | 56 | 1.0 | 3.0 | 0.00 | 0.00 | 0.00 | 50 | 1013.6 |
| 20260507070304 | 47 | 13 | 2.0 | 3.0 | 0.00 | 0.00 | 0.00 | 49 | 1013.6 |
| 20260507065803 | 47 | 32 | 2.0 | 6.0 | 0.00 | 0.00 | 0.00 | 47 | 1013.6 |
| 20260507064803 | 47 | 251 | 1.0 | 3.0 | 0.00 | 0.00 | 0.00 | 48 | 1013.5 |
| 20260507064303 | 47 | 39 | 1.0 | 3.0 | 0.00 | 0.00 | 0.00 | 50 | 1013.5 |
| 20260507063803 | 47 | 125 | 1.0 | 5.0 | 0.00 | 0.00 | 0.00 | 54 | 1013.5 |
| 20260507063303 | 46 | 41 | 1.0 | 3.0 | 0.00 | 0.00 | 0.00 | 55 | 1013.5 |
| 20260507062803 | 46 | 143 | 1.0 | 3.0 | 0.00 | 0.00 | 0.00 | 60 | 1013.5 |
| 20260507061804 | 46 | 309 | 1.0 | 3.0 | 0.00 | 0.00 | 0.00 | 66 | 1013.4 |
| 20260507061303 | 45 | 45 | 1.0 | 3.0 | 0.00 | 0.00 | 0.00 | 61 | 1013.4 |
| 20260507060804 | 45 | 161 | 0.0 | 2.0 | 0.00 | 0.00 | 0.00 | 60 | 1013.4 |
| 20260507060303 | 44 | 171 | 1.0 | 3.0 | 0.00 | 0.00 | 0.00 | 62 | 1013.3 |
| 20260507055804 | 44 | 209 | 1.0 | 2.0 | 0.00 | 0.00 | 0.00 | 64 | 1013.3 |
| 20260507055306 | 44 | 164 | 1.0 | 3.0 | 0.00 | 0.00 | 0.00 | 63 | 1013.3 |
| 20260507054803 | 43 | 181 | 0.0 | 3.0 | 0.00 | 0.00 | 0.00 | 71 | 1013.3 |
| 20260507054303 | 43 | 173 | 0.0 | 1.0 | 0.00 | 0.00 | 0.00 | 73 | 1013.3 |
| 20260507053804 | 42 | 173 | 1.0 | 2.0 | 0.00 | 0.00 | 0.00 | 73 | 1013.3 |
| 20260507053303 | 42 | 173 | 0.0 | 0.0 | 0.00 | 0.00 | 0.00 | 81 | 1013.3 |
| 20260507052803 | 42 | 173 | 0.0 | 0.0 | 0.00 | 0.00 | 0.00 | 83 | 1013.3 |
| 20260507052306 | 41 | 173 | 0.0 | 0.0 | 0.00 | 0.00 | 0.00 | 82 | 1013.3 |
| 20260507051804 | 41 | 173 | 0.0 | 0.0 | 0.00 | 0.00 | 0.00 | 85 | 1013.3 |
| 20260507051303 | 40 | 173 | 0.0 | 0.0 | 0.00 | 0.00 | 0.00 | 88 | 1013.3 |
| 20260507050304 | 39 | 173 | 0.0 | 0.0 | 0.00 | 0.00 | 0.00 | 94 | 1013.3 |
| 20260507045803 | 39 | 173 | 0.0 | 0.0 | 0.00 | 0.00 | 0.00 | 95 | 1013.3 |
| 20260507044803 | 38 | 173 | 0.0 | 0.0 | 0.00 | 0.00 | 0.00 | 96 | 1013.3 |
| 20260507044304 | 38 | 173 | 0.0 | 0.0 | 0.00 | 0.00 | 0.00 | 96 | 1013.1 |
| 20260507043803 | 38 | 173 | 0.0 | 0.0 | 0.00 | 0.00 | 0.00 | 96 | 1013.1 |
| 20260507043303 | 37 | 173 | 0.0 | 0.0 | 0.00 | 0.00 | 0.00 | 96 | 1013.1 |
| 20260507042803 | 37 | 173 | 0.0 | 0.0 | 0.00 | 0.00 | 0.00 | 96 | 1013.1 |
| 20260507042306 | 37 | 173 | 0.0 | 0.0 | 0.00 | 0.00 | 0.00 | 96 | 1013.1 |
| 20260507041803 | 36 | 173 | 0.0 | 0.0 | 0.00 | 0.00 | 0.00 | 96 | 1013.1 |
| 20260507041303 | 36 | 173 | 0.0 | 0.0 | 0.00 | 0.00 | 0.00 | 96 | 1013.1 |
| 20260507040804 | 35 | 173 | 0.0 | 0.0 | 0.00 | 0.00 | 0.00 | 96 | 1013.1 |
| 20260507040304 | 35 | 173 | 0.0 | 0.0 | 0.00 | 0.00 | 0.00 | 96 | 1013.1 |
| 20260507035804 | 34 | 173 | 0.0 | 0.0 | 0.00 | 0.00 | 0.00 | 96 | 1013.1 |
| 20260507034804 | 33 | 173 | 0.0 | 0.0 | 0.00 | 0.00 | 0.00 | 96 | 1013.1 |
| 20260507034304 | 33 | 173 | 0.0 | 0.0 | 0.00 | 0.00 | 0.00 | 95 | 1013.1 |
| 20260507033804 | 33 | 173 | 0.0 | 0.0 | 0.00 | 0.00 | 0.00 | 95 | 1013.1 |
| 20260507033303 | 32 | 173 | 0.0 | 0.0 | 0.00 | 0.00 | 0.00 | 95 | 1012.6 |
| 20260507032803 | 31 | 173 | 0.0 | 0.0 | 0.00 | 0.00 | 0.00 | 95 | 1012.6 |
| 20260507032305 | 31 | 173 | 0.0 | 0.0 | 0.00 | 0.00 | 0.00 | 95 | 1012.6 |
| 20260507031803 | 30 | 173 | 0.0 | 0.0 | 0.00 | 0.00 | 0.00 | 95 | 1012.6 |
| 20260507031304 | 30 | 173 | 0.0 | 0.0 | 0.00 | 0.00 | 0.00 | 95 | 1012.6 |
| 20260507030803 | 30 | 173 | 0.0 | 0.0 | 0.00 | 0.00 | 0.00 | 95 | 1012.6 |
| 20260507025803 | 30 | 173 | 0.0 | 0.0 | 0.00 | 0.00 | 0.00 | 94 | 1012.6 |
| 20260507025306 | 31 | 173 | 0.0 | 0.0 | 0.00 | 0.00 | 0.00 | 94 | 1012.6 |
| 20260507024803 | 32 | 173 | 0.0 | 0.0 | 0.00 | 0.00 | 0.00 | 95 | 1012.6 |
| 20260507024304 | 32 | 173 | 0.0 | 0.0 | 0.00 | 0.00 | 0.00 | 95 | 1012.6 |
| 20260507023804 | 31 | 173 | 0.0 | 0.0 | 0.00 | 0.00 | 0.00 | 94 | 1012.6 |
| 20260507023304 | 31 | 173 | 0.0 | 0.0 | 0.00 | 0.00 | 0.00 | 94 | 1012.6 |
| 20260507022803 | 32 | 173 | 0.0 | 0.0 | 0.00 | 0.00 | 0.00 | 94 | 1012.6 |
| 20260507022306 | 32 | 173 | 0.0 | 0.0 | 0.00 | 0.00 | 0.00 | 94 | 1012.6 |
| 20260507021804 | 32 | 173 | 0.0 | 0.0 | 0.00 | 0.00 | 0.00 | 94 | 1012.6 |
| 20260507020803 | 33 | 173 | 0.0 | 0.0 | 0.00 | 0.00 | 0.00 | 94 | 1012.6 |
| 20260507020303 | 33 | 173 | 0.0 | 0.0 | 0.00 | 0.00 | 0.00 | 94 | 1012.6 |
| 20260507015804 | 33 | 173 | 0.0 | 0.0 | 0.00 | 0.00 | 0.00 | 94 | 1012.6 |
| 20260507015306 | 33 | 173 | 0.0 | 0.0 | 0.00 | 0.00 | 0.00 | 95 | 1012.6 |
| 20260507014803 | 33 | 173 | 0.0 | 0.0 | 0.00 | 0.00 | 0.00 | 94 | 1012.6 |
| 20260507014303 | 33 | 173 | 0.0 | 0.0 | 0.00 | 0.00 | 0.00 | 94 | 1012.6 |
| 20260507013804 | 33 | 173 | 0.0 | 0.0 | 0.00 | 0.00 | 0.00 | 94 | 1012.6 |
| 20260507013304 | 33 | 173 | 0.0 | 0.0 | 0.00 | 0.00 | 0.00 | 94 | 1012.4 |
| 20260507012306 | 33 | 173 | 0.0 | 0.0 | 0.00 | 0.00 | 0.00 | 94 | 1012.4 |
| 20260507011803 | 33 | 173 | 0.0 | 0.0 | 0.00 | 0.00 | 0.00 | 94 | 1012.4 |
| 20260507010303 | 33 | 173 | 0.0 | 0.0 | 0.00 | 0.00 | 0.00 | 94 | 1012.2 |
| 20260507005804 | 32 | 173 | 0.0 | 0.0 | 0.00 | 0.00 | 0.00 | 94 | 1012.2 |
| 20260507005305 | 33 | 173 | 0.0 | 0.0 | 0.00 | 0.00 | 0.00 | 93 | 1012.2 |
| 20260507004803 | 33 | 173 | 0.0 | 0.0 | 0.00 | 0.00 | 0.00 | 94 | 1012.2 |
| 20260507004304 | 33 | 173 | 0.0 | 0.0 | 0.00 | 0.00 | 0.00 | 94 | 1012.2 |
| 20260507003804 | 33 | 173 | 0.0 | 0.0 | 0.00 | 0.00 | 0.00 | 94 | 1012.2 |
| 20260507003304 | 32 | 173 | 0.0 | 0.0 | 0.00 | 0.00 | 0.00 | 93 | 1012.2 |
| 20260507002803 | 32 | 173 | 0.0 | 0.0 | 0.00 | 0.00 | 0.00 | 93 | 1012.2 |
| 20260507002306 | 32 | 173 | 0.0 | 0.0 | 0.00 | 0.00 | 0.00 | 93 | 1012.2 |
| 20260507001804 | 32 | 173 | 0.0 | 0.0 | 0.00 | 0.00 | 0.00 | 93 | 1012.2 |
| 20260507001303 | 32 | 173 | 0.0 | 0.0 | 0.00 | 0.00 | 0.00 | 93 | 1012.2 |
| 20260507000804 | 33 | 173 | 0.0 | 0.0 | 0.00 | 0.00 | 0.00 | 93 | 1012.2 |
| 20260507000306 | 33 | 173 | 0.0 | 0.0 | 0.00 | 0.00 | 0.00 | 93 | 1012.2 |
| 20260506235803 | 33 | 173 | 0.0 | 0.0 | 0.00 | 0.00 | 0.00 | 93 | 1012.2 |
| 20260506235306 | 33 | 173 | 0.0 | 0.0 | 0.00 | 0.00 | 0.00 | 93 | 1012.2 |
| 20260506234803 | 33 | 173 | 0.0 | 0.0 | 0.00 | 0.00 | 0.00 | 92 | 1012.2 |
| 20260506234303 | 33 | 173 | 0.0 | 0.0 | 0.00 | 0.00 | 0.00 | 92 | 1012.2 |
| 20260506233804 | 33 | 173 | 0.0 | 0.0 | 0.00 | 0.00 | 0.00 | 92 | 1012.2 |
| 20260506233303 | 34 | 173 | 0.0 | 0.0 | 0.00 | 0.00 | 0.00 | 92 | 1012.2 |
| 20260506231804 | 34 | 173 | 0.0 | 0.0 | 0.00 | 0.00 | 0.00 | 92 | 1012.2 |
| 20260506230304 | 34 | 173 | 0.0 | 0.0 | 0.00 | 0.00 | 0.00 | 91 | 1011.9 |
| 20260506225305 | 34 | 173 | 0.0 | 0.0 | 0.00 | 0.00 | 0.00 | 91 | 1011.9 |
| 20260506224803 | 34 | 173 | 0.0 | 0.0 | 0.00 | 0.00 | 0.00 | 91 | 1011.9 |
| 20260506223803 | 34 | 173 | 0.0 | 0.0 | 0.00 | 0.00 | 0.00 | 91 | 1011.9 |
| 20260506223304 | 33 | 173 | 0.0 | 0.0 | 0.00 | 0.00 | 0.00 | 91 | 1011.9 |
| 20260506222804 | 33 | 173 | 0.0 | 0.0 | 0.00 | 0.00 | 0.00 | 91 | 1011.9 |
| 20260506222306 | 32 | 173 | 0.0 | 1.0 | 0.00 | 0.00 | 0.00 | 90 | 1011.9 |
| 20260506221804 | 31 | 173 | 1.0 | 2.0 | 0.00 | 0.00 | 0.00 | 89 | 1011.9 |
| 20260506221304 | 31 | 173 | 1.0 | 2.0 | 0.00 | 0.00 | 0.00 | 89 | 1011.9 |
| 20260506220817 | 31 | 173 | 1.0 | 2.0 | 0.00 | 0.00 | 0.00 | 88 | 1011.9 |
| 20260506215802 | 31 | 173 | 0.0 | 0.0 | 0.00 | 0.00 | 0.00 | 87 | 1011.9 |
| 20260506215302 | 32 | 173 | 0.0 | 0.0 | 0.00 | 0.00 | 0.00 | 87 | 1011.9 |
| 20260506213801 | 32 | 173 | 0.0 | 0.0 | 0.00 | 0.00 | 0.00 | 86 | 1011.9 |
| 20260506213302 | 32 | 173 | 0.0 | 0.0 | 0.00 | 0.00 | 0.00 | 85 | 1011.9 |
| 20260506212801 | 32 | 173 | 0.0 | 0.0 | 0.00 | 0.00 | 0.00 | 84 | 1011.9 |
| 20260506212305 | 33 | 173 | 0.0 | 0.0 | 0.00 | 0.00 | 0.00 | 85 | 1011.9 |
| 20260506211802 | 33 | 173 | 0.0 | 0.0 | 0.00 | 0.00 | 0.00 | 84 | 1011.9 |
| 20260506211302 | 33 | 173 | 0.0 | 0.0 | 0.00 | 0.00 | 0.00 | 83 | 1011.9 |
| 20260506210302 | 33 | 173 | 0.0 | 0.0 | 0.00 | 0.00 | 0.00 | 82 | 1011.9 |
| 20260506205802 | 33 | 173 | 0.0 | 0.0 | 0.00 | 0.00 | 0.00 | 81 | 1011.9 |
| 20260506205305 | 34 | 173 | 0.0 | 0.0 | 0.00 | 0.00 | 0.00 | 80 | 1011.9 |
| 20260506204802 | 34 | 173 | 0.0 | 0.0 | 0.00 | 0.00 | 0.00 | 80 | 1011.9 |
| 20260506204302 | 34 | 173 | 0.0 | 0.0 | 0.00 | 0.00 | 0.00 | 81 | 1011.9 |
| 20260506203802 | 34 | 173 | 0.0 | 0.0 | 0.00 | 0.00 | 0.00 | 81 | 1011.9 |
| 20260506203302 | 34 | 173 | 0.0 | 0.0 | 0.00 | 0.00 | 0.00 | 79 | 1012.0 |
| 20260506202802 | 34 | 173 | 0.0 | 0.0 | 0.00 | 0.00 | 0.00 | 78 | 1012.0 |
| 20260506201802 | 35 | 173 | 0.0 | 0.0 | 0.00 | 0.00 | 0.00 | 77 | 1012.0 |
| 20260506201301 | 35 | 173 | 0.0 | 0.0 | 0.00 | 0.00 | 0.00 | 78 | 1012.0 |
| 20260506200302 | 35 | 173 | 0.0 | 0.0 | 0.00 | 0.00 | 0.00 | 77 | 1012.0 |
| 20260506195802 | 35 | 173 | 0.0 | 1.0 | 0.00 | 0.00 | 0.00 | 76 | 1012.1 |
| 20260506195305 | 35 | 173 | 0.0 | 1.0 | 0.00 | 0.00 | 0.00 | 76 | 1012.1 |
| 20260506194802 | 35 | 173 | 0.0 | 1.0 | 0.00 | 0.00 | 0.00 | 75 | 1012.1 |
| 20260506193802 | 36 | 173 | 0.0 | 1.0 | 0.00 | 0.00 | 0.00 | 74 | 1012.1 |
| 20260506193302 | 36 | 173 | 0.0 | 1.0 | 0.00 | 0.00 | 0.00 | 74 | 1012.1 |
| 20260506192802 | 36 | 173 | 0.0 | 1.0 | 0.00 | 0.00 | 0.00 | 73 | 1012.1 |
| 20260506192305 | 37 | 173 | 0.0 | 0.0 | 0.00 | 0.00 | 0.00 | 72 | 1012.1 |
| 20260506191802 | 37 | 173 | 0.0 | 2.0 | 0.00 | 0.00 | 0.00 | 72 | 1012.1 |
| 20260506190802 | 37 | 173 | 0.0 | 1.0 | 0.00 | 0.00 | 0.00 | 70 | 1012.1 |
| 20260506190302 | 38 | 173 | 0.0 | 1.0 | 0.00 | 0.00 | 0.00 | 69 | 1012.1 |
| 20260506185802 | 38 | 173 | 0.0 | 0.0 | 0.00 | 0.00 | 0.00 | 67 | 1012.1 |
| 20260506185306 | 39 | 173 | 0.0 | 1.0 | 0.00 | 0.00 | 0.00 | 65 | 1012.1 |
| 20260506184802 | 39 | 173 | 0.0 | 0.0 | 0.00 | 0.00 | 0.00 | 64 | 1012.1 |
| 20260506183802 | 40 | 173 | 0.0 | 0.0 | 0.00 | 0.00 | 0.00 | 62 | 1012.1 |
| 20260506183302 | 41 | 173 | 0.0 | 0.0 | 0.00 | 0.00 | 0.00 | 61 | 1011.9 |
| 20260506182802 | 41 | 173 | 0.0 | 1.0 | 0.00 | 0.00 | 0.00 | 59 | 1011.9 |
| 20260506182306 | 42 | 173 | 0.0 | 1.0 | 0.00 | 0.00 | 0.00 | 58 | 1011.9 |
| 20260506180802 | 43 | 157 | 1.0 | 3.0 | 0.00 | 0.00 | 0.00 | 54 | 1011.9 |
| 20260506180302 | 44 | 153 | 1.0 | 5.0 | 0.00 | 0.00 | 0.00 | 54 | 1011.9 |
| 20260506175802 | 44 | 165 | 1.0 | 5.0 | 0.00 | 0.00 | 0.00 | 53 | 1011.9 |
| 20260506175306 | 44 | 171 | 2.0 | 3.0 | 0.00 | 0.00 | 0.00 | 53 | 1011.8 |
| 20260506174802 | 44 | 186 | 2.0 | 5.0 | 0.00 | 0.00 | 0.00 | 52 | 1011.8 |
| 20260506174302 | 45 | 167 | 2.0 | 5.0 | 0.00 | 0.00 | 0.00 | 52 | 1011.9 |
| 20260506173802 | 45 | 166 | 2.0 | 6.0 | 0.00 | 0.00 | 0.00 | 52 | 1011.8 |
| 20260506173302 | 45 | 163 | 4.0 | 8.0 | 0.00 | 0.00 | 0.00 | 51 | 1011.8 |
| 20260506172802 | 45 | 162 | 3.0 | 7.0 | 0.00 | 0.00 | 0.00 | 49 | 1011.8 |
| 20260506172306 | 46 | 176 | 3.0 | 6.0 | 0.00 | 0.00 | 0.00 | 49 | 1011.8 |
| 20260506171802 | 46 | 164 | 5.0 | 9.0 | 0.00 | 0.00 | 0.00 | 48 | 1011.8 |
| 20260506171302 | 46 | 168 | 3.0 | 6.0 | 0.00 | 0.00 | 0.00 | 48 | 1011.8 |
| 20260506170802 | 46 | 168 | 5.0 | 7.0 | 0.00 | 0.00 | 0.00 | 48 | 1011.8 |
| 20260506170302 | 46 | 178 | 2.0 | 5.0 | 0.00 | 0.00 | 0.00 | 47 | 1011.8 |
| 20260506165305 | 46 | 200 | 5.0 | 10.0 | 0.00 | 0.00 | 0.00 | 46 | 1011.8 |
| 20260506164302 | 47 | 170 | 5.0 | 9.0 | 0.00 | 0.00 | 0.00 | 45 | 1011.8 |
| 20260506163802 | 47 | 168 | 4.0 | 10.0 | 0.00 | 0.00 | 0.00 | 45 | 1011.8 |
| 20260506163301 | 47 | 183 | 3.0 | 8.0 | 0.00 | 0.00 | 0.00 | 44 | 1011.8 |
| 20260506162802 | 47 | 155 | 3.0 | 8.0 | 0.00 | 0.00 | 0.00 | 42 | 1011.8 |
| 20260506162306 | 48 | 150 | 6.0 | 10.0 | 0.00 | 0.00 | 0.00 | 40 | 1011.8 |
| 20260506161802 | 48 | 161 | 3.0 | 7.0 | 0.00 | 0.00 | 0.00 | 44 | 1011.8 |
| 20260506161303 | 48 | 173 | 3.0 | 8.0 | 0.00 | 0.00 | 0.00 | 45 | 1011.8 |
| 20260506160802 | 48 | 160 | 2.0 | 9.0 | 0.00 | 0.00 | 0.00 | 44 | 1011.8 |
| 20260506155802 | 48 | 170 | 5.0 | 10.0 | 0.00 | 0.00 | 0.00 | 42 | 1011.7 |
| 20260506155305 | 48 | 180 | 3.0 | 6.0 | 0.00 | 0.00 | 0.00 | 41 | 1011.7 |
| 20260506154802 | 48 | 187 | 3.0 | 9.0 | 0.00 | 0.00 | 0.00 | 41 | 1011.7 |
| 20260506153802 | 48 | 166 | 4.0 | 12.0 | 0.00 | 0.00 | 0.00 | 40 | 1011.7 |
| 20260506153302 | 48 | 178 | 3.0 | 8.0 | 0.00 | 0.00 | 0.00 | 41 | 1011.8 |
| 20260506152802 | 49 | 189 | 5.0 | 9.0 | 0.00 | 0.00 | 0.00 | 38 | 1011.8 |
| 20260506152305 | 49 | 174 | 3.0 | 3.0 | 0.00 | 0.00 | 0.00 | 41 | 1011.8 |